[[{"header":{"parameterUnit":"m.s-1","parameterCategory":1,"la1":30.2991,"la2":30.254,"lo1":-89.0895,"lo2":-89.0444,"dy":0.0017,"dx":0.0017,"nx":28,"ny":28,"refTime":"2025-02-09T09:00:00:Z","depth":0,"parameterNumber":2,"parameterNumberName":"U-component_of_WINDS"},"data":[0,0,0,0,0,0,0,0,0,0,0,0,0,0,0,0,0,0,0,0,0,0,0,0,0,0,0,0,0,0,0,0,0,0,0,0,0,0,0,0,0,0,0,0,0,0,0,0,0,0,0,0,0,0,0,0,0,0,-3.7469,-3.747,0,-3.7502,-3.7503,-3.7503,-3.7447,-3.7445,-3.7443,-3.7442,-3.7477,-3.748,-3.7482,0,0,0,0,0,0,0,0,0,0,0,0,0,-3.7361,-3.7363,-3.7469,-3.747,-3.747,-3.7502,-3.7503,-3.7503,-3.7448,-3.7445,-3.7443,-3.7441,-3.7476,-3.7479,-3.7483,0,0,0,0,0,0,0,0,0,0,0,0,0,-3.7402,-3.7364,-3.7469,-3.7446,-3.7445,-3.7502,-3.7503,-3.7503,-3.7448,-3.7445,-3.7442,-3.744,-3.7475,-3.7479,-3.7483,-3.7565,0,0,-3.7495,-3.7497,0,0,0,0,0,0,0,0,-3.74,-3.7406,-3.7449,-3.7448,-3.7446,-3.7468,-3.7477,-3.7524,-3.7449,-3.7447,-3.7442,-3.7438,-3.7476,-3.748,-3.7493,-3.7567,-3.7568,-3.7496,-3.7498,-3.75,-3.7501,0,0,0,0,0,0,0,-3.7397,-3.7405,-3.7482,-3.745,-3.7448,-3.7435,-3.7438,-3.7486,-3.7477,-3.7447,-3.7443,-3.7447,-3.7475,-3.7489,-3.7493,-3.7569,-3.7496,-3.7499,-3.7502,-3.7503,-3.7713,-3.7716,0,0,0,0,0,0,-3.7397,-3.7403,-3.7481,-3.7483,-3.7416,-3.7439,-3.7442,-3.7464,-3.7476,-3.7476,-3.745,-3.7445,-3.7483,-3.7488,-3.7494,-3.7591,-3.75,-3.7504,-3.7506,-3.771,-3.7714,-3.7717,0,0,0,0,0,0,-3.7395,-3.7404,-3.748,-3.7442,-3.7451,-3.7444,-3.7469,-3.7466,-3.7479,-3.7479,-3.7477,-3.7465,-3.7481,-3.7488,-3.7548,-3.7591,-3.7506,-3.7509,-3.7706,-3.7711,-3.7716,-3.7786,0,0,0,0,0,0,-3.7392,-3.7404,-3.7434,-3.7443,-3.7453,-3.7533,-3.7471,-3.7469,-3.7487,-3.748,-3.7493,-3.7492,-3.748,-3.7542,-3.7552,-3.7596,-3.7512,-3.7702,-3.7709,-3.7714,-3.778,-3.7792,-3.7803,0,0,0,0,0,-3.7388,-3.7453,-3.7436,-3.7446,-3.7491,-3.7535,-3.7541,-3.7524,-3.749,-3.7521,-3.7521,-3.7492,-3.7586,-3.7549,-3.7559,-3.7605,-3.77,-3.7707,-3.7714,-3.7774,-3.779,-3.7803,0,0,0,0,0,0,-3.745,-3.7454,-3.7435,-3.7504,-3.752,-3.7526,-3.7564,-3.7541,-3.7567,-3.756,-3.7539,-3.7543,-3.7607,-3.7612,-3.7571,-3.7686,-3.7637,-3.7647,-3.7679,-3.7694,-3.7706,-3.7703,-3.7516,0,0,0,0,0,-3.7471,-3.7507,-3.7509,-3.757,-3.7578,-3.757,-3.7589,-3.7575,-3.7591,-3.7597,-3.7601,-3.7618,-3.7651,-3.7673,-3.7704,-3.7781,-3.7783,-3.7817,-3.7829,-3.7839,-3.7847,-3.7889,-3.7904,-3.774,-3.774,-3.774,0,0,-3.7516,-3.7523,-3.7546,-3.7582,-3.7592,-3.763,-3.7576,-3.7618,-3.7646,-3.7603,-3.7659,-3.7664,-3.7681,-3.775,-3.7781,-3.7756,-3.7893,-3.7848,-3.7856,-3.7859,-3.7898,-3.7913,-3.7927,-3.7745,-3.7744,-3.7744,0,0,-3.7617,-3.7626,-3.7677,-3.7689,-3.7706,-3.77,-3.7713,-3.7723,-3.7724,-3.778,-3.7749,-3.7783,-3.784,-3.7854,-3.7869,-3.7977,-3.7952,-3.7988,-3.8049,-3.809,-3.8103,-3.8115,-3.8153,-3.8167,-3.7997,-3.7997,-3.7997,0,-3.767,-3.7725,-3.7707,-3.7752,-3.7768,-3.7732,-3.7785,-3.7798,-3.7824,-3.7837,-3.7809,-3.7881,-3.7891,-3.7962,-3.7989,-3.8002,-3.8017,-3.7985,-3.8103,-3.8114,-3.8124,-3.8161,-3.8175,-3.8001,-3.8,-3.8,-3.8,0,-3.7791,-3.7829,-3.787,-3.7895,-3.7917,-3.7966,-3.7956,-3.798,-3.7965,-3.7963,-3.8022,-3.8032,-3.8064,-3.808,-3.8066,-3.8151,-3.8135,-3.8106,-3.8056,-3.8144,-3.8178,-3.8192,-3.8007,-3.8005,-3.8004,-3.8003,0,0,-3.7928,-3.7945,-3.796,-3.7971,-3.7988,-3.8018,-3.8066,-3.8097,-3.8119,-3.8139,-3.8178,-3.8229,-3.8202,-3.8219,-3.8206,-3.8243,-3.8328,-3.8209,-3.8209,-3.823,-3.8422,-3.8443,-3.846,-3.8312,-3.8315,-3.8317,-3.8421,0,-3.8028,-3.8109,-3.8095,-3.8174,-3.821,-3.8178,-3.8219,-3.8235,-3.8235,-3.8266,-3.8266,-3.8302,-3.8264,-3.8274,-3.8309,-3.831,-3.8366,-3.8303,-3.8349,-3.8351,-3.8344,-3.8477,-3.8499,-3.8597,-3.8434,-3.8436,-3.8438,0,-3.8154,-3.8179,-3.8262,-3.8274,-3.8288,-3.8326,-3.8354,-3.8384,-3.8402,-3.8399,-3.8419,-3.84,-3.8449,-3.8401,-3.8468,-3.8425,-3.8444,-3.8448,-3.8451,-3.8453,-3.8398,-3.8483,-3.8627,-3.8641,-3.8458,-3.8457,-3.8455,0,-3.8246,-3.83,-3.8356,-3.8368,-3.8383,-3.841,-3.8418,-3.8433,-3.8453,-3.8478,-3.8491,-3.8522,-3.8539,-3.8564,-3.8555,-3.852,-3.8624,-3.8575,-3.8624,-3.8624,-3.8645,-3.8644,-3.8794,-3.866,-3.866,-3.8659,-3.8659,0,-3.8358,-3.841,-3.8398,-3.8432,-3.849,-3.8474,-3.8532,-3.8536,-3.855,-3.8586,-3.856,-3.8594,-3.8581,-3.8614,-3.8608,-3.8665,-3.8673,-3.8673,-3.867,-3.8674,-3.8674,-3.8684,-3.8677,-3.8663,-3.8662,-3.8662,-3.8661,0,-3.8469,-3.8463,-3.8522,-3.8533,-3.8537,-3.8579,-3.8588,-3.8621,-3.862,-3.8665,-3.8675,-3.8673,-3.8712,-3.8706,-3.8749,-3.8744,-3.8815,-3.8805,-3.8809,-3.8806,-3.8855,-3.885,-3.9016,-3.9037,-3.8891,-3.8892,-3.8893,0,-3.854,-3.8579,-3.8594,-3.8615,-3.8625,-3.8661,-3.8681,-3.8669,-3.8691,-3.8715,-3.8746,-3.8782,-3.881,-3.8873,-3.8877,-3.891,-3.8899,-3.8955,-3.8904,-3.8907,-3.8899,-3.8897,-3.89,-3.8965,-3.8967,-3.8968,-3.8969,0,-3.8666,-3.8662,-3.8692,-3.8722,-3.8747,-3.877,-3.8791,-3.881,-3.88,-3.8827,-3.8866,-3.8888,-3.8932,-3.8968,-3.9,-3.9009,-3.8988,-3.8986,-3.8999,-3.9002,-3.9003,-3.9002,-3.8835,-3.8981,-3.898,-3.8979,-3.8979,-3.8978,-3.8759,-3.8792,-3.8808,-3.8843,-3.8857,-3.8877,-3.8909,-3.8912,-3.8944,-3.8978,-3.897,-3.9014,-3.9032,-3.9072,-3.9085,-3.912,-3.9099,-3.9118,-3.9123,-3.9127,-3.9133,-3.8999,-3.9126,-3.9126,-3.9125,-3.9125,-3.9125,0,-3.8883,-3.8892,-3.8924,-3.8954,-3.8982,-3.896,-3.8982,-3.9007,-3.9046,-3.9065,-3.9093,-3.9139,-3.9175,-3.9181,-3.9216,-3.9243,-3.9234,-3.9252,-3.9249,-3.9252,-3.915,-3.9135,-3.9259,-3.9259,-3.9259,-3.9259,-3.9259,-3.9258,-3.8951,-3.9006,-3.9004,-3.9067,-3.9075,-3.9118,-3.9133,-3.9152,-3.9166,-3.9218,-3.9248,-3.9252,-3.9266,-3.9302,-3.9334,-3.9335,-3.9349,-3.9371,-3.9368,-3.9272,-3.9259,-3.9246,-3.9232,-3.9374,-3.9374,-3.9467,-3.9468,-3.9469]},{"header":{"parameterUnit":"m.s-1","parameterCategory":1,"la1":30.2991,"la2":30.254,"lo1":-89.0895,"lo2":-89.0444,"dy":0.0017,"dx":0.0017,"nx":28,"ny":28,"refTime":"2025-02-09T09:00:00:Z","depth":0,"parameterNumber":3,"parameterNumberName":"V-component_of_WINDS"},"data":[0,0,0,0,0,0,0,0,0,0,0,0,0,0,0,0,0,0,0,0,0,0,0,0,0,0,0,0,0,0,0,0,0,0,0,0,0,0,0,0,0,0,0,0,0,0,0,0,0,0,0,0,0,0,0,0,0,0,1.3934,1.3935,0,1.3973,1.3973,1.3974,1.3989,1.3989,1.3989,1.3989,1.4027,1.4028,1.4029,0,0,0,0,0,0,0,0,0,0,0,0,0,1.3875,1.3876,1.3934,1.3935,1.3935,1.3973,1.3973,1.3974,1.3989,1.3989,1.3989,1.3989,1.4027,1.4028,1.4029,0,0,0,0,0,0,0,0,0,0,0,0,0,1.3906,1.3876,1.3934,1.3948,1.3949,1.3973,1.3973,1.3974,1.3989,1.3989,1.3989,1.3989,1.4026,1.4028,1.403,1.4042,0,0,1.4035,1.4035,0,0,0,0,0,0,0,0,1.3904,1.3908,1.3945,1.3947,1.3949,1.3976,1.3966,1.3997,1.3989,1.3974,1.3989,1.3989,1.401,1.4013,1.4021,1.4044,1.4046,1.4035,1.4036,1.4037,1.4037,0,0,0,0,0,0,0,1.3902,1.3906,1.395,1.3946,1.3948,1.3952,1.3956,1.3972,1.3992,1.3975,1.3977,1.3981,1.4011,1.4019,1.4022,1.4046,1.4035,1.4036,1.4037,1.4038,1.4086,1.4086,0,0,0,0,0,0,1.3898,1.3904,1.3948,1.3951,1.3926,1.3953,1.3958,1.3967,1.3992,1.3996,1.3981,1.3982,1.4016,1.402,1.4023,1.4042,1.4037,1.4038,1.4039,1.4085,1.4086,1.4086,0,0,0,0,0,0,1.3896,1.3901,1.3947,1.3928,1.3934,1.3954,1.3965,1.3968,1.3976,1.3997,1.4,1.3986,1.4016,1.4021,1.4038,1.4043,1.4039,1.404,1.4085,1.4085,1.4086,1.4077,0,0,0,0,0,0,1.3894,1.3901,1.3905,1.3928,1.3935,1.3961,1.3965,1.3969,1.3979,1.398,1.4002,1.4005,1.4017,1.4036,1.404,1.4045,1.4042,1.4085,1.4085,1.4086,1.4077,1.4077,1.4078,0,0,0,0,0,1.3892,1.39,1.3905,1.391,1.3941,1.3961,1.3965,1.3979,1.3979,1.3985,1.3998,1.4004,1.4042,1.4037,1.4042,1.4048,1.4084,1.4085,1.4086,1.4077,1.4077,1.4077,0,0,0,0,0,0,1.3876,1.3903,1.3909,1.3925,1.3941,1.3964,1.397,1.3978,1.3993,1.3993,1.4009,1.4014,1.4031,1.4041,1.4036,1.4063,1.4064,1.4065,1.4056,1.4056,1.4056,1.4053,1.4043,0,0,0,0,0,1.3874,1.3888,1.3911,1.3923,1.3931,1.3949,1.3958,1.3968,1.3985,1.3991,1.4006,1.4022,1.4038,1.4047,1.4063,1.4079,1.4085,1.4086,1.4086,1.4086,1.4087,1.4099,1.41,1.4088,1.4088,1.4088,0,0,1.3871,1.3888,1.3895,1.392,1.3934,1.3949,1.3955,1.3969,1.3981,1.3993,1.4011,1.4023,1.4042,1.406,1.4068,1.4069,1.4092,1.4087,1.4087,1.4088,1.41,1.4101,1.4102,1.4088,1.4088,1.4088,0,0,1.3872,1.3886,1.3898,1.3912,1.3933,1.3946,1.3949,1.3972,1.398,1.3999,1.401,1.4024,1.405,1.4064,1.4074,1.4085,1.4092,1.4089,1.409,1.4101,1.4102,1.4103,1.4109,1.411,1.4091,1.409,1.409,0,1.3865,1.3887,1.3903,1.3918,1.393,1.3944,1.3957,1.397,1.3994,1.4002,1.4003,1.4039,1.4052,1.4075,1.4078,1.4085,1.409,1.4086,1.4101,1.4102,1.4103,1.4109,1.411,1.409,1.409,1.409,1.409,0,1.3878,1.3894,1.3902,1.3927,1.3939,1.3953,1.3972,1.3983,1.3992,1.4006,1.4026,1.4043,1.4064,1.407,1.4078,1.4094,1.4094,1.4098,1.4099,1.4104,1.4109,1.4111,1.409,1.409,1.409,1.409,0,0,1.3867,1.3904,1.3907,1.392,1.3945,1.3958,1.3974,1.3995,1.4005,1.4022,1.4037,1.406,1.4065,1.4077,1.4087,1.4097,1.4107,1.41,1.4101,1.4102,1.4128,1.4126,1.4128,1.4112,1.4113,1.4113,1.4127,0,1.3873,1.3902,1.3918,1.3941,1.3957,1.3972,1.3986,1.4004,1.4018,1.4034,1.4048,1.4066,1.4069,1.4077,1.4088,1.4104,1.4113,1.4103,1.4127,1.4127,1.4122,1.413,1.4127,1.4139,1.4129,1.413,1.413,0,1.3882,1.3901,1.3926,1.3953,1.396,1.3972,1.3995,1.4009,1.4031,1.404,1.4056,1.4067,1.4085,1.4086,1.4112,1.4105,1.4116,1.4126,1.4127,1.4129,1.4129,1.4134,1.4144,1.4146,1.4133,1.4133,1.4133,0,1.3874,1.3905,1.3925,1.3935,1.3967,1.3976,1.3989,1.4011,1.4023,1.4043,1.4052,1.4073,1.4085,1.4102,1.4119,1.4117,1.4145,1.4145,1.4154,1.4153,1.4158,1.4158,1.417,1.4164,1.4164,1.4164,1.4164,0,1.3878,1.3892,1.3922,1.3934,1.3952,1.3971,1.3988,1.4003,1.4023,1.4039,1.4053,1.4068,1.409,1.4107,1.4121,1.4142,1.4147,1.4156,1.4159,1.4155,1.4154,1.4162,1.4162,1.4165,1.4165,1.4165,1.4165,0,1.387,1.3891,1.3913,1.3943,1.3951,1.3962,1.3988,1.4001,1.4016,1.4036,1.4042,1.4066,1.4088,1.4108,1.4136,1.4146,1.4168,1.4172,1.4161,1.4163,1.417,1.417,1.4189,1.4193,1.4184,1.4184,1.4184,0,1.3872,1.3884,1.3915,1.3928,1.3942,1.3961,1.3975,1.3995,1.4009,1.4037,1.4047,1.407,1.409,1.4125,1.4145,1.4168,1.4173,1.4178,1.4176,1.4172,1.4175,1.4174,1.4176,1.4178,1.4178,1.4178,1.4178,0,1.3872,1.3883,1.3902,1.3927,1.3944,1.3963,1.3984,1.3993,1.4018,1.4033,1.4057,1.4072,1.4103,1.4127,1.4152,1.4167,1.4177,1.4179,1.4182,1.4178,1.4171,1.4176,1.4162,1.4178,1.4178,1.4178,1.4178,1.4178,1.387,1.3883,1.3908,1.393,1.3948,1.3968,1.3982,1.4001,1.4021,1.4048,1.406,1.4084,1.4109,1.4144,1.4159,1.4179,1.4181,1.4185,1.4187,1.4187,1.4188,1.4168,1.4184,1.4184,1.4184,1.4184,1.4184,0,1.3872,1.389,1.3911,1.394,1.3959,1.3968,1.3992,1.4007,1.4028,1.405,1.4071,1.4099,1.4123,1.4147,1.4172,1.4184,1.419,1.419,1.4189,1.4193,1.4184,1.4179,1.4185,1.4185,1.4185,1.4185,1.4185,1.4185,1.3876,1.3898,1.3912,1.3945,1.3963,1.3988,1.4001,1.402,1.4038,1.4069,1.409,1.4106,1.4129,1.4157,1.418,1.4187,1.4196,1.4195,1.4203,1.4194,1.4193,1.4193,1.4189,1.4197,1.4197,1.4211,1.4211,1.4211]}]]